COSMOS 422

Satellite information

Favourite Embed

Satellite Type and Status

PAYLOADIN ORBIT

Key statistics

Satellite COSMOS 422 at a glance.

Uptime

19708

Days in orbit

Revolutions

≈ 13.7

Per day

Orbit

LEO

Low Earth Orbit

Inclination

74.0

Latest

Satellite identification and parameters

Extended collection of information and parameters for COSMOS 422.

Object identification

Identified? True

Debris? False

Object name: COSMOS 422

International designator: 1971-046A

Object number (NORAD): 5238

Object ID (CCSDS): 5238

Country: COMMONWEALTH OF INDEPENDENT STATES (CIS)

Current information (Y/N): Y

RCS size: LARGE

Orbital parameters

Period: 104.936 minutes

Inclination: 74.0167 deg

SMA: 7369.61 km

Apoapsis: 1002.58 km

Periapsis: 980.37 km

RAAN: 127.0732 deg

Eccentricy: 0.0015069

Argument of periapsis: 193.5577 deg

Mean anomaly: 339.6669 deg

Mean motion: 13.72258722 rev/day

Mean motion (dot): 0.00000043 rev/day2

B* drag term: 0.000071956 1/REarth

Two-line elements (TLE)

Creation date: May 6, 2025, 3:54 a.m.

Reference frame: TEME

Reference center: EARTH

Epoch: May 5, 2025, 6:42 p.m. UTC

TLE line 0: 0 COSMOS 422

TLE line 1: 1 05238U 71046A 25125.77974417 .00000043 00000-0 71956-4 0 9996

TLE line 2: 2 05238 74.0167 127.0732 0015069 193.5577 339.6669 13.72258722701598

Live tracking on map

Real-time ground track for satellite COSMOS 422.

In-orbit conjunctions

A list of the most updated potential collisions computed for object COSMOS 422.

Target Orbit TCA Probability of collision Miss distance Type
SL-16 DEB LEO 2024-11-07 14:57:32 0.0001860313 887.0 (m) DEBRIS
THORAD AGENA D DEB SSO 2024-08-06 12:15:19 0.03005916 10.0 (m) DEBRIS

Associated space launch

The first soviet navigation system called Tsiklon consisted of Zaliv satellites in low earth orbit.

COSMOS 422 was lifted into orbit during the mission ‘Kosmos-3M | Zaliv 8’, on board a Kosmos-3M space rocket.

The launch took place on May 22, 1971, 12:51 a.m. from 132/1 (132L).

For more information about the launch, click the button.

Launch to space Kosmos-3M | Zaliv 8
Kosmos-3M | Zaliv 8

Agency: N/A

Status: Launch Successful

Launch date: May 22, 1971, 12:51 a.m. UTC

Rocket: Kosmos-3M

Launch pad: 132/1 (132L)

Location: Plesetsk Cosmodrome, Russian Federation

...

Latest news about this satellite

There are no fresh news available about this satellite. Check back as we update our databases every day.


Newsletter sign-up

Weekly statistics, charts and insights to help you stay on top of the space industry.